CZ-6A DEB

Satellite information

Favourite Embed

Satellite Type and Status

DEBRISIN ORBIT

Key statistics

Satellite CZ-6A DEB at a glance.

Uptime

441

Days in orbit

Revolutions

≈ 14.5

Per day

Orbit

LEO

Low Earth Orbit

Inclination

88.9

Latest

Satellite identification and parameters

Extended collection of information and parameters for CZ-6A DEB.

Object identification

Identified? True

Debris? True

Object name: CZ-6A DEB

International designator: 2024-140LR

Object number (NORAD): 60966

Object ID (CCSDS): 60966

Country: PEOPLES REPUBLIC OF CHINA (PRC)

Current information (Y/N): Y

RCS size: SMALL

Orbital parameters

Period: 99.625 minutes

Inclination: 88.8802 deg

SMA: 7118.796 km

Apoapsis: 792.965 km

Periapsis: 688.357 km

RAAN: 293.3727 deg

Eccentricy: 0.00734733

Argument of periapsis: 29.9545 deg

Mean anomaly: 330.5832 deg

Mean motion: 14.45416364 rev/day

Mean motion (dot): 0.00001663 rev/day2

B* drag term: 0.00045277923 1/REarth

Two-line elements (TLE)

Creation date: Oct. 21, 2025, 3:26 a.m.

Reference frame: TEME

Reference center: EARTH

Epoch: Oct. 20, 2025, 10:43 p.m. UTC

TLE line 0: 0 CZ-6A DEB

TLE line 1: 1 60966U 24140LR 25293.94713316 .00001663 00000-0 45278-3 0 9998

TLE line 2: 2 60966 88.8802 293.3727 0073473 29.9545 330.5832 14.45416364 61654

Live tracking on map

Real-time ground track for satellite CZ-6A DEB.

In-orbit conjunctions

A list of the most updated potential collisions computed for object CZ-6A DEB.

Target Orbit TCA Probability of collision Miss distance Type
CZ-6A DEB SSO 2025-04-21 05:13:57 0.0002845696 50.0 (m) DEBRIS
CZ-6A DEB SSO 2025-04-10 10:33:33 0.0001316397 131.0 (m) DEBRIS
FENGYUN 1C DEB SSO 2025-03-27 07:47:58 0.0002314796 57.0 (m) DEBRIS
COSMOS 2251 DEB LEO 2025-03-08 01:01:26 0.0001058785 228.0 (m) DEBRIS
CZ-6A DEB LEO 2025-01-05 05:04:00 0.002241994 79.0 (m) DEBRIS

Associated space launch

18 Low Earth Orbit communication satellites with Ku, Q and V band payloads for the G60 constellation operated by Shanghai Spacecom Satellite Technology (SSST) with funding backed by the Shanghai local government. Initial constellation will consist of 1296 satellites by 2027 with long term plans to expand it to 12000 satellites.

CZ-6A DEB was lifted into orbit during the mission ‘Long March 6A | G60 Polar Group 01’, on board a Long March 6A space rocket.

The launch took place on Aug. 6, 2024, 6:42 a.m. from Launch Complex 9A.

For more information about the launch, click the button.

Launch to space Long March 6A | G60 Polar Group 01
Long March 6A | G60 Polar Group 01

Agency: N/A

Status: Launch Successful

Launch date: Aug. 6, 2024, 6:42 a.m. UTC

Rocket: Long March 6A

Launch pad: Launch Complex 9A

Location: Taiyuan Satellite Launch Center, People's Republic of China

...

Latest news about this satellite

News about space launch
Brightness of first Chinese broadband constellation satellites alarms astronomers

The first satellites of a Chinese broadband constellation are significantly brighter than those of Western systems, posing a new challenge for astronomers.

News about space launch
Chinese rocket stage breaks up into cloud of more than 700 pieces of space debris

HELSINKI — A Chinese Long March 6A rocket’s upper stage has fragmented into a cloud of over 700 pieces of space debris, adding to concerns about long-term orbital safety. China […]

News about space launch
China's Thousand Sails Megaconstellation Kicks Off with Dangerous Debris Field

China's Thousand Sails Megaconstellation Kicks Off with Dangerous Debris Field


Newsletter sign-up

Weekly statistics, charts and insights to help you stay on top of the space industry.